Corinth, MS

12:03 AM CDT on September 22, 2017 (GMT -0500)
Turner

Weather History for KCRX - November, 2012

Change the Weather History Date:

Thursday, November 8, 2012

  Actual Average Record
Temperature  
Mean Temperature 44 °F -  
Max Temperature 59 °F 65 °F 79 °F (1980)
Min Temperature 28 °F 39 °F 19 °F (1993)
Degree Days  
Heating Degree Days 22    
Moisture  
Dew Point 33 °F    
Average Humidity 75    
Maximum Humidity 100    
Minimum Humidity 38    
Precipitation  
Precipitation 0.00 in - - ()
Sea Level Pressure  
Sea Level Pressure 30.22 in    
Wind  
Wind Speed 1 mph (SSE)    
Max Wind Speed 6 mph    
Max Gust Speed -    
Visibility 7 miles    
Events Fog    
Averages and records for this station are not official NWS values.
T = Trace of Precipitation, MM = Missing Value Source: NWS Daily Summary

Daily Weather History Graph

Daily Weather History Graph

Search for Another Location

Airport or City:

Trip Planner

Search our weather history database for the weather conditions in past years. The results will help you decide how hot, cold, wet, or windy it might be!

Date:

Astronomy

Nov. 08, 2012 Rise Set
Actual Time 6:22 AM CST 4:53 PM CST
Civil Twilight 5:55 AM CST 5:20 PM CST
Nautical Twilight 5:25 AM CST 5:50 PM CST
Astronomical Twilight 4:55 AM CST 6:20 PM CST
Moon 12:30 AM CST (11/8) 1:22 PM CST (11/8)
Length of Visible Light 11h 24m
Length of Day
10h 31m
Waning Crescent, 32% of the Moon is Illuminated
Nov 8
Waning Crescent
Nov 13
New
Nov 20
First Quarter
Nov 28
Full
Dec 6
Last Quarter

Hourly Weather History & Observations

Time (CST) Temp. Windchill Dew Point Humidity Pressure Visibility Wind Dir Wind Speed Gust Speed Precip Events Conditions
12:05 AM 32.0 °F - 30.2 °F 93% 30.18 in 0.5 mi Calm Calm - N/A Fog Light Freezing Fog
12:25 AM 32.0 °F - 32.0 °F 100% 30.18 in 0.2 mi Calm Calm - N/A Fog Fog
1:05 AM 30.2 °F 26.7 °F 28.4 °F 93% 30.18 in 0.5 mi WNW 3.5 mph - N/A Fog Light Freezing Fog
1:25 AM 30.2 °F - 28.4 °F 93% 30.19 in 0.2 mi Calm Calm - N/A Fog Light Freezing Fog
1:45 AM 30.2 °F 26.7 °F 28.4 °F 93% 30.19 in 1.0 mi WNW 3.5 mph - N/A   Mostly Cloudy
2:05 AM 30.2 °F - 28.4 °F 93% 30.20 in 1.2 mi Calm Calm - N/A   Clear
2:25 AM 28.4 °F - 28.4 °F 100% 30.21 in 5.0 mi Calm Calm - N/A   Clear
2:45 AM 30.2 °F - 28.4 °F 93% 30.21 in 8.0 mi Calm Calm - N/A   Clear
3:05 AM 30.2 °F - 28.4 °F 93% 30.21 in 10.0 mi Calm Calm - N/A   Clear
3:25 AM 30.2 °F - 28.4 °F 93% 30.21 in 9.0 mi Calm Calm - N/A   Mostly Cloudy
3:45 AM 32.0 °F - 30.2 °F 93% 30.21 in 0.2 mi Calm Calm - N/A Fog Light Freezing Fog
4:05 AM 30.2 °F - 28.4 °F 93% 30.21 in 0.2 mi Calm Calm - N/A Fog Light Freezing Fog
4:25 AM 28.4 °F - 28.4 °F 100% 30.22 in 0.2 mi Calm Calm - N/A Fog Light Freezing Fog
4:45 AM 28.4 °F - 28.4 °F 100% 30.22 in 0.2 mi Calm Calm - N/A Fog Light Freezing Fog
5:05 AM 28.4 °F - 28.4 °F 100% 30.23 in 0.2 mi Calm Calm - N/A Fog Light Freezing Fog
5:45 AM 28.4 °F - 26.6 °F 93% 30.23 in 0.2 mi Calm Calm - N/A Fog Light Freezing Fog
6:05 AM 28.4 °F - 26.6 °F 93% 30.24 in 1.0 mi Calm Calm - N/A   Overcast
6:45 AM 28.4 °F - 26.6 °F 93% 30.25 in 0.5 mi Calm Calm - N/A Fog Light Freezing Fog
7:05 AM 28.4 °F - 28.4 °F 100% 30.26 in 3.0 mi Calm Calm - N/A   Mostly Cloudy
7:25 AM 32.0 °F - 30.2 °F 93% 30.27 in 5.0 mi Calm Calm - N/A   Mostly Cloudy
7:45 AM 33.8 °F - 32.0 °F 93% 30.28 in 3.0 mi Calm Calm - N/A   Partly Cloudy
8:05 AM 35.6 °F - 35.6 °F 100% 30.28 in 4.0 mi Calm Calm - N/A   Partly Cloudy
8:25 AM 39.2 °F - 37.4 °F 93% 30.29 in 5.0 mi Calm Calm - N/A   Partly Cloudy
8:45 AM 39.2 °F - 39.2 °F 100% 30.29 in 7.0 mi Calm Calm - N/A   Clear
9:05 AM 41.0 °F - 41.0 °F 100% 30.30 in 8.0 mi Calm Calm - N/A   Clear
9:25 AM 44.6 °F - 41.0 °F 87% 30.29 in 10.0 mi Calm Calm - N/A   Clear
9:45 AM 48.2 °F - 39.2 °F 71% 30.29 in 10.0 mi Calm Calm - N/A   Clear
10:05 AM 50.0 °F - 37.4 °F 62% 30.29 in 10.0 mi Calm Calm - N/A   Clear
10:25 AM 51.8 °F - 37.4 °F 58% 30.28 in 10.0 mi SE 3.5 mph - N/A   Clear
10:45 AM 51.8 °F - 35.6 °F 54% 30.27 in 10.0 mi Calm Calm - N/A   Clear
11:05 AM 53.6 °F - 35.6 °F 51% 30.27 in 10.0 mi Calm Calm - N/A   Clear
11:25 AM 53.6 °F - 33.8 °F 47% 30.25 in 10.0 mi SSW 4.6 mph - N/A   Clear
11:45 AM 55.4 °F - 35.6 °F 47% 30.24 in 10.0 mi Calm Calm - N/A   Clear
12:05 PM 55.4 °F - 35.6 °F 47% 30.23 in 10.0 mi NE 5.8 mph - N/A   Clear
12:25 PM 57.2 °F - 35.6 °F 44% 30.23 in 10.0 mi Calm Calm - N/A   Clear
12:45 PM 57.2 °F - 35.6 °F 44% 30.22 in 10.0 mi South 3.5 mph - N/A   Clear
1:05 PM 57.2 °F - 35.6 °F 44% 30.22 in 10.0 mi Calm Calm - N/A   Clear
1:25 PM 57.2 °F - 32.0 °F 38% 30.21 in 10.0 mi Calm Calm - N/A   Clear
1:45 PM 57.2 °F - 32.0 °F 38% 30.21 in 10.0 mi Calm Calm - N/A   Clear
2:05 PM 57.2 °F - 32.0 °F 38% 30.20 in 10.0 mi South 3.5 mph - N/A   Clear
2:25 PM 57.2 °F - 32.0 °F 38% 30.20 in 10.0 mi Calm Calm - N/A   Clear
2:45 PM 57.2 °F - 32.0 °F 38% 30.20 in 10.0 mi Calm Calm - N/A   Clear
3:05 PM 59.0 °F - 33.8 °F 39% 30.20 in 10.0 mi Calm Calm - N/A   Clear
3:25 PM 59.0 °F - 33.8 °F 39% 30.20 in 10.0 mi Calm Calm - N/A   Clear
3:45 PM 57.2 °F - 32.0 °F 38% 30.19 in 10.0 mi Calm Calm - N/A   Clear
4:05 PM 57.2 °F - 33.8 °F 41% 30.19 in 10.0 mi SSE 3.5 mph - N/A   Clear
4:25 PM 55.4 °F - 35.6 °F 47% 30.19 in 10.0 mi SE 3.5 mph - N/A   Clear
4:45 PM 55.4 °F - 35.6 °F 47% 30.18 in 10.0 mi SE 3.5 mph - N/A   Clear
5:05 PM 53.6 °F - 35.6 °F 51% 30.19 in 10.0 mi Calm Calm - N/A   Clear
5:25 PM 50.0 °F - 35.6 °F 58% 30.19 in 10.0 mi Calm Calm - N/A   Clear
5:45 PM 46.4 °F - 37.4 °F 71% 30.20 in 10.0 mi Calm Calm - N/A   Clear
6:05 PM 44.6 °F - 35.6 °F 71% 30.20 in 10.0 mi Calm Calm - N/A   Clear
6:25 PM 44.6 °F - 35.6 °F 71% 30.20 in 10.0 mi Calm Calm - N/A   Clear
6:45 PM 44.6 °F - 35.6 °F 71% 30.20 in 10.0 mi Calm Calm - N/A   Clear
7:05 PM 41.0 °F - 35.6 °F 81% 30.20 in 10.0 mi Calm Calm - N/A   Clear
7:25 PM 41.0 °F - 35.6 °F 81% 30.20 in 10.0 mi Calm Calm - N/A   Clear
8:05 PM 37.4 °F - 35.6 °F 93% 30.20 in 10.0 mi Calm Calm - N/A   Clear
8:25 PM 39.2 °F - 35.6 °F 87% 30.20 in 10.0 mi Calm Calm - N/A   Clear
8:45 PM 37.4 °F 34.9 °F 32.0 °F 81% 30.20 in 10.0 mi SE 3.5 mph - N/A   Clear
9:05 PM 37.4 °F - 33.8 °F 87% 30.20 in 10.0 mi Calm Calm - N/A   Clear
9:25 PM 37.4 °F - 33.8 °F 87% 30.20 in 10.0 mi Calm Calm - N/A   Clear
9:45 PM 35.6 °F - 32.0 °F 87% 30.20 in 8.0 mi Calm Calm - N/A   Clear
10:05 PM 35.6 °F - 33.8 °F 93% 30.19 in 10.0 mi Calm Calm - N/A   Clear
10:25 PM 33.8 °F - 32.0 °F 93% 30.19 in 8.0 mi Calm Calm - N/A   Clear
10:45 PM 35.6 °F - 32.0 °F 87% 30.19 in 10.0 mi Calm Calm - N/A   Clear
11:05 PM 35.6 °F - 32.0 °F 87% 30.19 in 7.0 mi Calm Calm - N/A   Clear
11:25 PM 33.8 °F 30.8 °F 32.0 °F 93% 30.18 in 8.0 mi SSE 3.5 mph - N/A   Clear
11:45 PM 33.8 °F - 32.0 °F 93% 30.18 in 7.0 mi Calm Calm - N/A   Clear